User: anonymous   Login
Location: Luz Observatory
(34.5000°N, 117.2833°W)
Time: 13:33:55
(UTC-08:00)
Language:

Cosmos 1452 Rocket - Orbit

View from above orbital plane
View from above orbital plane
View from above satellite
View from above satellite

Ground track
Ground track

The orbit data is extracted from the following two-line orbital elements,

1 13992U 83031B   14353.89537251  .00000352  00000-0  13044-3 0  5873
2 13992 074.0527 236.4825 0003929 081.2482 359.4893 14.35844672658148
Epoch (UTC): 19 December 2014 21:29:20
Eccentricity: 0.0003929
inclination: 74.0527°
perigee height: 769 km
apogee height: 775 km
right ascension of ascending node: 236.4825°
argument of perigee: 81.2482°
revolutions per day: 14.35844672
mean anomaly at epoch: 359.4893°
orbit number at epoch: 65814

The dashed part of the orbit path shows where the satellite is in the earth's shadow,  

DLR